| time (UTC) | temp F | wind direction | speed knots | gust knots | rain 1hr in | rain 24hr in | rain mn in | humidity % | barometer mb |
| 20260510064615 | 49 | 210 | 5.2 | 5.2 | 0.00 | 0.06 | 0.00 | 65 | 1005.7 |
| 20260510063209 | 50 | 238 | 4.3 | 4.3 | 0.00 | 0.06 | 0.00 | 64 | 1005.2 |
| 20260510061806 | 50 | 210 | 5.2 | 4.3 | 0.00 | 0.06 | 0.00 | 62 | 1004.8 |
| 20260510060401 | 50 | 201 | 8.7 | 7.8 | 0.00 | 0.06 | 0.00 | 62 | 1004.4 |
| 20260510053555 | 51 | 197 | 7.8 | 7.8 | 0.00 | 0.06 | 0.00 | 62 | 1003.5 |
| 20260510052154 | 52 | 193 | 7.8 | 7.0 | 0.00 | 0.06 | 0.00 | 62 | 1003.2 |
| 20260510050752 | 52 | 203 | 7.0 | 9.6 | 0.00 | 0.06 | 0.00 | 62 | 1002.8 |
| 20260510045347 | 52 | 198 | 8.7 | 11.3 | 0.00 | 0.06 | 0.00 | 62 | 1002.3 |
| 20260510042541 | 52 | 217 | 8.7 | 11.3 | 0.00 | 0.06 | 0.00 | 63 | 1001.7 |
| 20260510041137 | 53 | 190 | 6.1 | 10.4 | 0.00 | 0.06 | 0.00 | 66 | 1001.3 |
| 20260510035737 | 53 | 207 | 4.3 | 8.7 | 0.00 | 0.06 | 0.00 | 69 | 1001.0 |
| 20260510034331 | 54 | 172 | 5.2 | 5.2 | 0.00 | 0.06 | 0.00 | 73 | 1000.8 |
| 20260510032929 | 54 | 214 | 2.6 | 3.5 | 0.00 | 0.06 | 0.00 | 76 | 1000.4 |
| 20260510031525 | 54 | 232 | 0.9 | 0.9 | 0.00 | 0.06 | 0.00 | 85 | 1000.2 |
| 20260510030120 | 53 | 255 | 0.9 | 0.9 | 0.00 | 0.06 | 0.00 | 85 | 999.8 |
| 20260510024720 | 53 | 217 | 3.5 | 2.6 | 0.00 | 0.06 | 0.00 | 81 | 999.6 |
| 20260510023314 | 54 | 224 | 5.2 | 7.0 | 0.00 | 0.06 | 0.00 | 74 | 999.5 |
| 20260510021918 | 54 | 184 | 5.2 | 3.5 | 0.00 | 0.06 | 0.00 | 72 | 999.2 |
| 20260510020510 | 54 | 184 | 7.0 | 7.0 | 0.00 | 0.06 | 0.00 | 71 | 999.0 |
| 20260510015107 | 55 | 205 | 5.2 | 7.0 | 0.00 | 0.06 | 0.00 | 71 | 998.7 |
| 20260510013703 | 56 | 228 | 6.1 | 5.2 | 0.00 | 0.06 | 0.00 | 69 | 998.3 |
| 20260510012259 | 56 | 197 | 4.3 | 8.7 | 0.00 | 0.06 | 0.00 | 72 | 998.0 |
| 20260510010856 | 55 | 224 | 7.0 | 6.1 | 0.00 | 0.06 | 0.00 | 74 | 997.8 |
| 20260510005456 | 55 | 197 | 4.3 | 6.1 | 0.00 | 0.06 | 0.00 | 76 | 997.6 |
| 20260510004050 | 55 | 193 | 7.0 | 7.0 | 0.00 | 0.06 | 0.00 | 72 | 997.5 |
| 20260510002650 | 54 | 210 | 6.1 | 8.7 | 0.00 | 0.06 | 0.00 | 74 | 997.4 |
| 20260510001243 | 53 | 218 | 5.2 | 5.2 | 0.00 | 0.06 | 0.00 | 80 | 997.4 |
| 20260509235840 | 53 | 186 | 5.2 | 4.3 | 0.00 | 0.06 | 0.00 | 85 | 997.4 |
| 20260509234437 | 52 | 181 | 4.3 | 4.3 | 0.00 | 0.06 | 0.00 | 95 | 997.3 |
| 20260509233033 | 51 | 204 | 7.0 | 7.0 | 0.00 | 0.06 | 0.00 | 97 | 997.3 |
| 20260509231628 | 51 | 217 | 7.8 | 8.7 | 0.00 | 0.06 | 0.00 | 97 | 997.3 |
| 20260509230225 | 53 | 225 | 5.2 | 5.2 | 0.00 | 0.06 | 0.00 | 93 | 996.9 |
| 20260509224821 | 53 | 180 | 7.8 | 9.6 | 0.00 | 0.06 | 0.00 | 88 | 996.6 |
| 20260509223416 | 53 | 148 | 7.8 | 7.0 | 0.00 | 0.06 | 0.00 | 87 | 996.4 |
| 20260509220610 | 53 | 162 | 5.2 | 6.1 | 0.00 | 0.06 | 0.00 | 88 | 996.0 |
| 20260509215207 | 53 | 172 | 4.3 | 2.6 | 0.00 | 0.06 | 0.00 | 91 | 995.6 |
| 20260509213803 | 53 | 165 | 7.8 | 8.7 | 0.00 | 0.06 | 0.00 | 95 | 995.5 |
| 20260509212359 | 54 | 148 | 5.2 | 3.5 | 0.00 | 0.06 | 0.00 | 96 | 995.1 |
| 20260509210954 | 54 | 187 | 6.1 | 5.2 | 0.00 | 0.06 | 0.00 | 98 | 994.6 |
| 20260509205554 | 54 | 143 | 7.0 | 7.0 | 0.00 | 0.06 | 0.00 | 100 | 994.3 |
| 20260509204152 | 54 | 142 | 4.3 | 2.6 | 0.00 | 0.06 | 0.00 | 100 | 994.2 |
| 20260509202745 | 53 | 176 | 5.2 | 6.1 | 0.00 | 0.06 | 0.00 | 100 | 994.0 |
| 20260509201341 | 52 | 193 | 1.7 | 1.7 | 0.00 | 0.06 | 0.00 | 100 | 993.7 |
| 20260509195937 | 52 | 207 | 3.5 | 1.7 | 0.00 | 0.06 | 0.00 | 100 | 993.4 |
| 20260509194534 | 51 | 183 | 2.6 | 1.7 | 0.00 | 0.06 | 0.00 | 100 | 993.2 |
| 20260509193130 | 50 | 188 | 3.5 | 4.3 | 0.00 | 0.06 | 0.00 | 100 | 992.9 |
| 20260509191727 | 50 | 262 | 0.0 | 1.7 | 0.00 | 0.06 | 0.00 | 100 | 992.2 |
| 20260509190326 | 50 | 217 | 0.0 | 0.0 | 0.00 | 0.06 | 0.00 | 100 | 991.8 |
| 20260509184921 | 51 | 281 | 1.7 | 0.9 | 0.00 | 0.06 | 0.00 | 100 | 991.7 |
| 20260509183517 | 51 | 287 | 0.9 | 0.9 | 0.00 | 0.06 | 0.00 | 100 | 991.6 |
| 20260509182112 | 52 | 285 | 0.0 | 0.0 | 0.00 | 0.06 | 0.00 | 100 | 991.7 |
| 20260509180709 | 53 | 273 | 0.9 | 0.9 | 0.00 | 0.06 | 0.00 | 100 | 991.3 |
| 20260509175307 | 53 | 294 | 0.0 | 0.0 | 0.00 | 0.06 | 0.00 | 100 | 991.2 |
| 20260509173902 | 53 | 294 | 0.0 | 0.0 | 0.00 | 0.06 | 0.00 | 100 | 991.1 |
| 20260509172502 | 53 | 322 | 0.9 | 0.0 | 0.00 | 0.06 | 0.00 | 100 | 990.9 |
| 20260509171058 | 53 | 124 | 0.0 | 0.0 | 0.00 | 0.06 | 0.00 | 100 | 991.0 |
| 20260509165658 | 53 | 222 | 0.0 | 0.0 | 0.00 | 0.06 | 0.00 | 100 | 990.9 |
| 20260509164249 | 53 | 205 | 0.9 | 1.7 | 0.00 | 0.06 | 0.00 | 100 | 990.7 |
| 20260509161443 | 53 | 152 | 1.7 | 3.5 | 0.00 | 0.06 | 0.00 | 100 | 990.6 |
| 20260509160039 | 54 | 208 | 2.6 | 2.6 | 0.00 | 0.06 | 0.00 | 100 | 990.5 |
| 20260509154636 | 54 | 159 | 3.5 | 0.0 | 0.00 | 0.06 | 0.00 | 100 | 990.9 |
| 20260509153232 | 54 | 200 | 4.3 | 1.7 | 0.00 | 0.06 | 0.00 | 100 | 990.7 |
| 20260509151832 | 54 | 146 | 4.3 | 3.5 | 0.00 | 0.06 | 0.00 | 100 | 990.6 |
| 20260509150426 | 54 | 186 | 7.8 | 6.1 | 0.00 | 0.06 | 0.00 | 100 | 990.7 |
| 20260509143618 | 54 | 197 | 5.2 | 5.2 | 0.00 | 0.06 | 0.00 | 66 | 990.5 |
| 20260509142213 | 55 | 277 | 2.6 | 1.7 | 0.00 | 0.06 | 0.00 | 63 | 989.9 |
| 20260509140810 | 54 | 291 | 2.6 | 2.6 | 0.00 | 0.06 | 0.00 | 65 | 990.0 |
| 20260509135406 | 54 | 297 | 3.5 | 4.3 | 0.00 | 0.06 | 0.00 | 66 | 989.9 |
| 20260509134006 | 54 | 284 | 2.6 | 2.6 | 0.00 | 0.06 | 0.00 | 65 | 989.8 |
| 20260509132604 | 55 | 304 | 3.5 | 3.5 | 0.00 | 0.06 | 0.00 | 62 | 989.9 |
| 20260509125754 | 56 | 315 | 3.5 | 2.6 | 0.00 | 0.06 | 0.00 | 60 | 990.4 |
| 20260509124354 | 57 | 319 | 4.3 | 4.3 | 0.00 | 0.06 | 0.00 | 60 | 990.4 |
| 20260509122947 | 58 | 291 | 5.2 | 7.0 | 0.00 | 0.06 | 0.00 | 57 | 990.6 |
| 20260509121547 | 59 | 316 | 7.0 | 4.3 | 0.00 | 0.06 | 0.00 | 54 | 990.7 |
| 20260509114739 | 58 | 345 | 2.6 | 6.1 | 0.00 | 0.21 | 0.06 | 56 | 991.2 |
| 20260509113335 | 57 | 305 | 4.3 | 5.2 | 0.00 | 0.21 | 0.06 | 59 | 991.5 |
| 20260509111932 | 57 | 335 | 5.2 | 3.5 | 0.00 | 0.21 | 0.06 | 58 | 991.7 |
| 20260509110527 | 58 | 304 | 4.3 | 2.6 | 0.00 | 0.21 | 0.06 | 59 | 991.8 |
| 20260509105124 | 58 | 290 | 6.1 | 4.3 | 0.00 | 0.21 | 0.06 | 57 | 992.1 |
| 20260509103720 | 58 | 301 | 4.3 | 5.2 | 0.00 | 0.21 | 0.06 | 60 | 992.1 |
| 20260509102317 | 58 | 318 | 5.2 | 2.6 | 0.00 | 0.21 | 0.06 | 59 | 992.3 |
| 20260509100913 | 58 | 277 | 5.2 | 3.5 | 0.00 | 0.21 | 0.06 | 58 | 992.1 |
| 20260509095513 | 59 | 274 | 5.2 | 5.2 | 0.00 | 0.21 | 0.06 | 58 | 992.3 |
| 20260509094108 | 58 | 293 | 5.2 | 6.1 | 0.00 | 0.21 | 0.06 | 58 | 992.2 |
| 20260509092704 | 58 | 290 | 7.8 | 7.0 | 0.00 | 0.21 | 0.06 | 58 | 992.0 |
| 20260509091300 | 57 | 295 | 7.0 | 7.0 | 0.00 | 0.21 | 0.06 | 62 | 992.0 |
| 20260509085857 | 56 | 260 | 5.2 | 3.5 | 0.00 | 0.21 | 0.06 | 68 | 992.1 |
| 20260509081651 | 51 | 305 | 3.5 | 4.3 | 0.00 | 0.21 | 0.06 | 100 | 991.8 |
| 20260509080250 | 52 | 339 | 3.5 | 3.5 | 0.00 | 0.21 | 0.06 | 100 | 991.9 |
| 20260509074842 | 52 | 222 | 1.7 | 0.0 | 0.00 | 0.21 | 0.06 | 100 | 991.7 |
| 20260509073439 | 53 | 225 | 0.9 | 0.0 | 0.00 | 0.21 | 0.06 | 100 | 991.9 |
| 20260509072035 | 53 | 239 | 4.3 | 2.6 | 0.00 | 0.21 | 0.06 | 100 | 992.2 |
| 20260509070632 | 53 | 238 | 2.6 | 1.7 | 0.00 | 0.21 | 0.06 | 100 | 992.0 |